This is the latest recevied weather packets stored in our database for station/object K4PAR-1. If no packets are shown the sender has not sent any weather packets the latest 10 day(s).
| Time | Temp. | Humidity | Pressure | Rain* | Wind** | Luminosity | Snow |
|---|---|---|---|---|---|---|---|
| 1788541393 | 31.67° C | - | - | 0 mm | 0.89 m/s, 246° | - | - |
| 1788541150 | 31.67° C | - | - | 0 mm | 3.13 m/s, 224° | - | - |
| 1788540423 | 31.67° C | - | - | 0 mm | 1.79 m/s, 210° | - | - |
| 1788540180 | 31.67° C | - | - | 0 mm | 1.34 m/s, 239° | - | - |
| 1788539695 | 30.56° C | - | - | 0 mm | 0.89 m/s, 205° | - | - |
| 1788539453 | 28.89° C | - | - | 0 mm | 2.68 m/s, 235° | - | - |
| 1788538967 | 30.56° C | - | - | 0 mm | 3.13 m/s, 172° | - | - |
| 1788538482 | 30.56° C | - | - | 0 mm | 0 m/s | - | - |
| 1788538240 | 30.56° C | - | - | 0 mm | 1.79 m/s, 325° | - | - |
| 1788537997 | 30° C | - | - | 0 mm | 1.79 m/s, 243° | - | - |
| 1788537270 | 31.67° C | - | - | 0 mm | 0 m/s | - | - |
| 1788536785 | 30° C | - | - | 0 mm | 0.45 m/s, 235° | - | - |
| 1788536300 | 29.44° C | - | - | 0 mm | 2.68 m/s, 243° | - | - |
| 1788536057 | 30.56° C | - | - | 0 mm | 0 m/s | - | - |
| 1788535815 | 30° C | - | - | 0 mm | 1.79 m/s, 179° | - | - |
| 1788535572 | 30° C | - | - | 0 mm | 2.68 m/s, 235° | - | - |
| 1788535330 | 30° C | - | - | 0 mm | 1.34 m/s, 250° | - | - |
| 1788535126 | 28.89° C | - | - | 0 mm | 1.34 m/s, 221° | - | - |
| 1788535087 | 28.89° C | - | - | 0 mm | 1.34 m/s, 221° | - | - |
| 1788534845 | 29.44° C | - | - | 0 mm | 1.79 m/s, 248° | - | - |
| 1788533804 | 28.89° C | - | - | 0 mm | 1.34 m/s, 191° | - | - |
| 1788533633 | 28.89° C | - | - | 0 mm | 1.34 m/s, 191° | - | - |
| 1788532420 | 30° C | - | - | 0 mm | 0 m/s | - | - |
| 1788532178 | 29.44° C | - | - | 0 mm | 0 m/s | - | - |
| 1788531969 | 28.33° C | - | - | 0 mm | 0 m/s | - | - |
* Rain latest hour (hover to see other rain measurements)
** Current wind speed in m/s (hover to see current wind gust speed)